EW6063 Weather Reports


Display with metric or nautical units.
time (UTC)temp
F
wind
direction
speed
MPH
gust
MPH
rain 1hr
in
rain 24hr
in
rain mn
in
humidity
%
barometer
mb
20260906183059 100 26 3.0 8.0 0.00 0.00 0.00 39 1011.5
20260906182557 100 20 4.0 8.0 0.00 0.00 0.00 38 1011.4
20260906182057 101 49 2.0 5.0 0.00 0.00 0.00 38 1011.3
20260906181556 100 343 1.0 4.0 0.00 0.00 0.00 37 1011.3
20260906181054 100 27 1.0 4.0 0.00 0.00 0.00 37 1011.3
20260906180554 100 9 1.0 4.0 0.00 0.00 0.00 38 1011.3
20260906180053 100 275 0.0 4.0 0.00 0.00 0.00 37 1011.6
20260906175555 99 234 1.0 3.0 0.00 0.00 0.00 39 1011.8
20260906175050 99 113 0.0 2.0 0.00 0.00 0.00 40 1011.8
20260906174550 99 5 0.0 0.0 0.00 0.00 0.00 40 1012.1
20260906174050 98 5 0.0 2.0 0.00 0.00 0.00 40 1012.2
20260906173549 98 5 0.0 2.0 0.00 0.00 0.00 41 1012.3
20260906173054 98 5 0.0 2.0 0.00 0.00 0.00 41 1012.4
20260906172550 98 5 0.0 2.0 0.00 0.00 0.00 42 1012.6
20260906172146 98 5 0.0 0.0 0.00 0.00 0.00 42 1012.6
20260906171547 98 5 0.0 0.0 0.00 0.00 0.00 42 1012.7
20260906171045 98 5 0.0 0.0 0.00 0.00 0.00 43 1012.8
20260906170546 98 5 0.0 0.0 0.00 0.00 0.00 43 1012.9
20260906170046 98 5 0.0 0.0 0.00 0.00 0.00 42 1013.0
20260906165546 98 5 0.0 0.0 0.00 0.00 0.00 42 1013.0
20260906165049 98 5 0.0 0.0 0.00 0.00 0.00 42 1013.1
20260906164546 99 5 0.0 0.0 0.00 0.00 0.00 42 1013.1
20260906164044 99 5 0.0 0.0 0.00 0.00 0.00 42 1013.1
20260906163542 99 5 0.0 1.0 0.00 0.00 0.00 43 1013.1
20260906163041 98 5 0.0 1.0 0.00 0.00 0.00 44 1013.2
20260906162539 98 5 0.0 1.0 0.00 0.00 0.00 44 1013.2
20260906162037 97 5 0.0 2.0 0.00 0.00 0.00 45 1013.3
20260906161537 97 5 0.0 2.0 0.00 0.00 0.00 46 1013.3
20260906161035 96 5 0.0 2.0 0.00 0.00 0.00 47 1013.3
20260906160535 95 5 0.0 0.0 0.00 0.00 0.00 49 1013.4
20260906160032 94 5 0.0 1.0 0.00 0.00 0.00 51 1013.3
20260906155530 93 5 0.0 1.0 0.00 0.00 0.00 52 1013.3
20260906155028 92 5 0.0 0.0 0.00 0.00 0.00 54 1013.4
20260906154530 91 5 0.0 1.0 0.00 0.00 0.00 56 1013.2
20260906154026 89 5 0.0 1.0 0.00 0.00 0.00 58 1013.3
20260906153524 88 5 0.0 2.0 0.00 0.00 0.00 60 1013.2
20260906153026 87 5 0.0 2.0 0.00 0.00 0.00 63 1013.2
20260906152525 85 5 0.0 0.0 0.00 0.00 0.00 64 1013.2
20260906152020 84 5 0.0 0.0 0.00 0.00 0.00 66 1013.2
20260906151520 83 5 0.0 0.0 0.00 0.00 0.00 68 1013.2
20260906151019 82 5 0.0 0.0 0.00 0.00 0.00 70 1013.2
20260906150516 82 5 0.0 0.0 0.00 0.00 0.00 72 1013.2
20260906150015 81 5 0.0 0.0 0.00 0.00 0.00 74 1013.3
20260906145514 80 5 0.0 0.0 0.00 0.00 0.00 75 1013.4
20260906145014 80 5 0.0 0.0 0.00 0.00 0.00 76 1013.3
20260906144518 79 5 0.0 0.0 0.00 0.00 0.00 78 1013.3
20260906144012 78 5 0.0 0.0 0.00 0.00 0.00 78 1013.3
20260906143514 78 5 0.0 0.0 0.00 0.00 0.00 79 1013.3
20260906143013 77 5 0.0 0.0 0.00 0.00 0.00 80 1013.3
20260906142511 77 5 0.0 0.0 0.00 0.00 0.00 81 1013.3
20260906142013 76 5 0.0 0.0 0.00 0.00 0.00 82 1013.3
20260906141520 76 5 0.0 0.0 0.00 0.00 0.00 83 1013.4
20260906141010 76 5 0.0 0.0 0.00 0.00 0.00 83 1013.4
20260906140509 75 5 0.0 0.0 0.00 0.00 0.00 83 1013.4
20260906140008 75 5 0.0 0.0 0.00 0.00 0.00 84 1013.3
20260906135506 75 5 0.0 0.0 0.00 0.00 0.00 83 1013.2
20260906135006 74 5 0.0 0.0 0.00 0.00 0.00 84 1013.1
20260906134504 74 5 0.0 0.0 0.00 0.00 0.00 84 1013.1
20260906134007 74 5 0.0 0.0 0.00 0.00 0.00 84 1013.0
20260906133502 74 5 0.0 0.0 0.00 0.00 0.00 84 1013.0
20260906133002 74 5 0.0 0.0 0.00 0.00 0.00 84 1012.9
20260906132501 73 5 0.0 0.0 0.00 0.00 0.00 83 1012.9
20260906132000 73 5 0.0 0.0 0.00 0.00 0.00 83 1012.9
20260906131601 73 5 0.0 0.0 0.00 0.00 0.00 83 1012.8
20260906131103 73 5 0.0 0.0 0.00 0.00 0.00 83 1012.8
20260906130559 73 5 0.0 0.0 0.00 0.00 0.00 82 1012.8
20260906130145 73 5 0.0 0.0 0.00 0.00 0.00 82 1012.7
20260906125558 73 5 0.0 0.0 0.00 0.00 0.00 82 1012.7
20260906125059 73 5 0.0 0.0 0.00 0.00 0.00 81 1012.6
20260906124607 73 5 0.0 0.0 0.00 0.00 0.00 81 1012.6
20260906124056 73 5 0.0 0.0 0.00 0.00 0.00 81 1012.6
20260906123555 73 5 0.0 0.0 0.00 0.00 0.00 81 1012.5
20260906123054 73 5 0.0 0.0 0.00 0.00 0.00 80 1012.4
20260906122554 73 5 0.0 0.0 0.00 0.00 0.00 81 1012.4
20260906122054 73 5 0.0 0.0 0.00 0.00 0.00 81 1012.3
20260906121604 73 5 0.0 0.0 0.00 0.00 0.00 81 1012.3
20260906121052 73 5 0.0 0.0 0.00 0.00 0.00 81 1012.2
20260906120550 73 5 0.0 0.0 0.00 0.00 0.00 80 1012.2
20260906120104 73 5 0.0 0.0 0.00 0.00 0.00 80 1012.3
20260906115549 73 5 0.0 0.0 0.00 0.00 0.00 80 1012.3
20260906115048 74 5 0.0 0.0 0.00 0.00 0.00 80 1012.2
20260906114548 74 5 0.0 0.0 0.00 0.00 0.00 80 1012.2
20260906114046 74 5 0.0 0.0 0.00 0.00 0.00 80 1012.1
20260906113546 74 5 0.0 0.0 0.00 0.00 0.00 79 1012.1
20260906113051 74 5 0.0 0.0 0.00 0.00 0.00 79 1012.1
20260906112544 74 5 0.0 0.0 0.00 0.00 0.00 79 1012.0
20260906112044 74 5 0.0 0.0 0.00 0.00 0.00 79 1012.0
20260906111543 74 5 0.0 0.0 0.00 0.00 0.00 79 1011.8
20260906111042 74 5 0.0 0.0 0.00 0.00 0.00 78 1011.8
20260906110541 74 5 0.0 0.0 0.00 0.00 0.00 78 1011.8
20260906110040 75 5 0.0 0.0 0.00 0.00 0.00 78 1011.7
20260906105540 75 5 0.0 0.0 0.00 0.00 0.00 78 1011.8
20260906105040 75 5 0.0 0.0 0.00 0.00 0.00 77 1011.8
20260906104539 75 5 0.0 0.0 0.00 0.00 0.00 77 1011.8
20260906104038 75 5 0.0 0.0 0.00 0.00 0.00 77 1011.8
20260906103538 75 5 0.0 0.0 0.00 0.00 0.00 77 1011.8
20260906103049 75 5 0.0 0.0 0.00 0.00 0.00 76 1011.7
20260906102541 75 5 0.0 0.0 0.00 0.00 0.00 76 1011.6
20260906102036 75 5 0.0 0.0 0.00 0.00 0.00 76 1011.7
20260906101536 75 5 0.0 0.0 0.00 0.00 0.00 76 1011.7
20260906101038 75 5 0.0 0.0 0.00 0.00 0.00 76 1011.7
20260906100535 76 5 0.0 0.0 0.00 0.00 0.00 75 1011.6
20260906100036 76 5 0.0 0.0 0.00 0.00 0.00 75 1011.5
20260906095533 76 5 0.0 0.0 0.00 0.00 0.00 75 1011.5
20260906095033 76 5 0.0 0.0 0.00 0.00 0.00 75 1011.5
20260906094532 76 5 0.0 0.0 0.00 0.00 0.00 74 1011.5
20260906094031 76 5 0.0 0.0 0.00 0.00 0.00 74 1011.3
20260906093534 76 5 0.0 0.0 0.00 0.00 0.00 74 1011.2
20260906093031 76 5 0.0 0.0 0.00 0.00 0.00 74 1011.2
20260906092530 77 5 0.0 0.0 0.00 0.00 0.00 73 1011.1
20260906092030 77 5 0.0 0.0 0.00 0.00 0.00 73 1011.1
20260906091530 77 5 0.0 0.0 0.00 0.00 0.00 73 1011.2
20260906091029 77 5 0.0 0.0 0.00 0.00 0.00 72 1011.2
20260906090529 77 5 0.0 0.0 0.00 0.00 0.00 72 1011.2
20260906090028 77 5 0.0 0.0 0.00 0.00 0.00 72 1011.1
20260906085528 77 5 0.0 0.0 0.00 0.00 0.00 72 1011.0
20260906085026 78 5 0.0 0.0 0.00 0.00 0.00 72 1011.0
20260906084526 78 5 0.0 0.0 0.00 0.00 0.00 73 1011.0
20260906084026 78 5 0.0 0.0 0.00 0.00 0.00 73 1010.9
20260906083524 78 5 0.0 0.0 0.00 0.00 0.00 73 1010.8
20260906083024 78 5 0.0 0.0 0.00 0.00 0.00 72 1010.8
20260906082523 78 5 0.0 0.0 0.00 0.00 0.00 70 1010.8
20260906082024 78 5 0.0 0.0 0.00 0.00 0.00 70 1010.9
20260906081525 78 5 0.0 0.0 0.00 0.00 0.00 70 1010.9
20260906081022 78 5 0.0 0.0 0.00 0.00 0.00 71 1011.0
20260906080521 79 5 0.0 0.0 0.00 0.00 0.00 70 1011.0
20260906080021 79 5 0.0 0.0 0.00 0.00 0.00 70 1011.0
20260906075519 79 5 0.0 0.0 0.00 0.00 0.00 70 1011.0
20260906075019 79 5 0.0 0.0 0.00 0.00 0.00 70 1011.0
20260906074518 79 5 0.0 0.0 0.00 0.00 0.00 69 1011.1
20260906074017 79 5 0.0 0.0 0.00 0.00 0.00 68 1011.0
20260906073521 80 5 0.0 0.0 0.00 0.00 0.00 69 1011.2
20260906073015 80 5 0.0 0.0 0.00 0.00 0.00 68 1011.2
20260906072515 80 5 0.0 0.0 0.00 0.00 0.00 68 1011.1
20260906072018 80 5 0.0 0.0 0.00 0.00 0.00 68 1011.1
20260906071515 80 5 0.0 0.0 0.00 0.00 0.00 68 1011.1
20260906071015 80 5 0.0 0.0 0.00 0.00 0.00 67 1011.2
20260906070515 80 5 0.0 0.0 0.00 0.00 0.00 67 1011.3
20260906070014 80 5 0.0 0.0 0.00 0.00 0.00 67 1011.3
20260906065517 81 5 0.0 0.0 0.00 0.00 0.00 68 1011.2
20260906065015 80 5 0.0 0.0 0.00 0.00 0.00 67 1011.3
20260906064517 80 5 0.0 0.0 0.00 0.00 0.00 66 1011.3
20260906064013 80 5 0.0 0.0 0.00 0.00 0.00 66 1011.2
20260906063515 80 5 0.0 0.0 0.00 0.00 0.00 66 1011.3
20260906063013 80 5 0.0 0.0 0.00 0.00 0.00 66 1011.3
20260906062512 80 5 0.0 0.0 0.00 0.00 0.00 66 1011.3
20260906062012 80 5 0.0 0.0 0.00 0.00 0.00 67 1011.4
20260906061521 80 5 0.0 2.0 0.00 0.00 0.00 67 1011.3
20260906061010 80 5 0.0 3.0 0.00 0.00 0.00 68 1011.4
20260906060510 80 5 0.0 2.0 0.00 0.00 0.00 68 1011.4
20260906060009 80 5 0.0 2.0 0.00 0.00 0.00 68 1011.4
20260906055511 81 5 0.0 3.0 0.00 0.00 0.00 68 1011.4
20260906055008 81 5 2.0 3.0 0.00 0.00 0.00 68 1011.3
20260906054521 81 5 0.0 2.0 0.00 0.00 0.00 67 1011.3
20260906054006 81 5 0.0 1.0 0.00 0.00 0.00 65 1011.2
20260906053507 81 5 0.0 0.0 0.00 0.00 0.00 65 1011.3
20260906053005 81 5 0.0 0.0 0.00 0.00 0.00 65 1011.3
20260906052505 81 5 0.0 0.0 0.00 0.00 0.00 65 1011.3
20260906052007 81 5 0.0 0.0 0.00 0.00 0.00 66 1011.2
20260906051502 81 5 0.0 0.0 0.00 0.00 0.00 66 1011.2
20260906051005 81 5 0.0 0.0 0.00 0.00 0.00 65 1011.2
20260906050500 82 5 0.0 1.0 0.00 0.00 0.00 65 1011.1
20260906050100 82 5 0.0 1.0 0.00 0.00 0.00 65 1011.1
20260906045603 82 5 0.0 0.0 0.00 0.00 0.00 65 1011.2
20260906045059 82 5 0.0 0.0 0.00 0.00 0.00 64 1011.2
20260906044559 82 5 0.0 1.0 0.00 0.00 0.00 64 1011.1
20260906044059 82 5 0.0 1.0 0.00 0.00 0.00 64 1011.2
20260906043602 82 5 0.0 0.0 0.00 0.00 0.00 63 1011.2
20260906043102 82 5 0.0 1.0 0.00 0.00 0.00 64 1011.2
20260906042600 82 5 0.0 1.0 0.00 0.00 0.00 64 1011.3
20260906042058 82 5 0.0 1.0 0.00 0.00 0.00 64 1011.3
20260906041558 82 5 0.0 1.0 0.00 0.00 0.00 64 1011.2
20260906041058 82 5 0.0 0.0 0.00 0.00 0.00 61 1011.2
20260906040558 82 5 0.0 0.0 0.00 0.00 0.00 62 1011.2
20260906040058 83 5 0.0 0.0 0.00 0.00 0.00 63 1011.1
20260906035557 83 5 0.0 0.0 0.00 0.00 0.00 63 1011.2
20260906035058 83 5 0.0 0.0 0.00 0.00 0.00 62 1011.2
20260906034603 83 5 0.0 0.0 0.00 0.00 0.00 62 1011.1
20260906034056 83 5 0.0 2.0 0.00 0.00 0.00 61 1011.0
20260906033556 83 5 0.0 2.0 0.00 0.00 0.00 61 1010.9
20260906033057 84 5 0.0 0.0 0.00 0.00 0.00 60 1010.9
20260906032556 84 5 0.0 0.0 0.00 0.00 0.00 59 1010.8
20260906032056 84 5 0.0 0.0 0.00 0.00 0.00 58 1010.8
20260906031556 84 5 0.0 0.0 0.00 0.00 0.00 58 1010.8
20260906031059 85 5 0.0 0.0 0.00 0.00 0.00 58 1010.8
20260906030556 85 5 0.0 0.0 0.00 0.00 0.00 58 1010.8
20260906030056 85 5 0.0 0.0 0.00 0.00 0.00 58 1010.8
20260906025555 85 5 0.0 0.0 0.00 0.00 0.00 57 1010.8
20260906025055 86 5 0.0 0.0 0.00 0.00 0.00 56 1010.7
20260906024555 86 5 0.0 0.0 0.00 0.00 0.00 56 1010.7
20260906024054 86 5 0.0 0.0 0.00 0.00 0.00 56 1010.6
20260906023554 87 5 0.0 0.0 0.00 0.00 0.00 56 1010.6
20260906023057 87 5 0.0 0.0 0.00 0.00 0.00 55 1010.6
20260906022553 87 5 0.0 0.0 0.00 0.00 0.00 54 1010.5
20260906022053 88 5 0.0 0.0 0.00 0.00 0.00 52 1010.4
20260906021553 88 5 0.0 0.0 0.00 0.00 0.00 52 1010.3
20260906021052 88 5 0.0 0.0 0.00 0.00 0.00 53 1010.2
20260906020553 89 5 0.0 0.0 0.00 0.00 0.00 53 1010.2
20260906020053 89 5 0.0 0.0 0.00 0.00 0.00 52 1010.1
20260906015552 90 5 0.0 0.0 0.00 0.00 0.00 51 1010.2
20260906015052 90 5 0.0 0.0 0.00 0.00 0.00 50 1010.1
20260906014554 90 5 0.0 1.0 0.00 0.00 0.00 51 1009.9
20260906014051 91 5 0.0 1.0 0.00 0.00 0.00 50 1010.0
20260906013551 91 5 0.0 1.0 0.00 0.00 0.00 48 1009.9
20260906013054 92 5 0.0 1.0 0.00 0.00 0.00 48 1009.9
20260906012552 92 5 0.0 1.0 0.00 0.00 0.00 48 1009.9
20260906012052 93 5 0.0 1.0 0.00 0.00 0.00 47 1009.8
20260906011554 93 5 0.0 1.0 0.00 0.00 0.00 47 1009.7
20260906011051 93 5 0.0 0.0 0.00 0.00 0.00 46 1009.6
20260906010550 94 5 0.0 0.0 0.00 0.00 0.00 45 1009.7
20260906010050 94 5 0.0 0.0 0.00 0.00 0.00 44 1009.6
20260906005549 95 5 0.0 0.0 0.00 0.00 0.00 44 1009.4
20260906005052 95 5 0.0 0.0 0.00 0.00 0.00 42 1009.4
20260906004549 95 5 0.0 0.0 0.00 0.00 0.00 41 1009.4
20260906004051 96 5 0.0 0.0 0.00 0.00 0.00 43 1009.4
20260906003549 96 5 0.0 0.0 0.00 0.00 0.00 41 1009.4
20260906003048 96 5 0.0 0.0 0.00 0.00 0.00 41 1009.4
20260906002546 97 5 0.0 0.0 0.00 0.00 0.00 40 1009.4
20260906002048 97 5 0.0 0.0 0.00 0.00 0.00 41 1009.4
20260906001546 97 5 0.0 0.0 0.00 0.00 0.00 39 1009.4
20260906001045 97 5 0.0 0.0 0.00 0.00 0.00 39 1009.5
20260906000545 98 5 0.0 0.0 0.00 0.00 0.00 38 1009.5
20260906000046 98 5 0.0 0.0 0.00 0.00 0.00 38 1009.5
20260905235545 98 5 0.0 0.0 0.00 0.00 0.00 38 1009.5
20260905235047 98 5 0.0 0.0 0.00 0.00 0.00 38 1009.6
20260905234545 98 5 0.0 0.0 0.00 0.00 0.00 37 1009.6
20260905234044 99 5 0.0 0.0 0.00 0.00 0.00 37 1009.6
20260905233544 99 5 0.0 0.0 0.00 0.00 0.00 38 1009.5
20260905233046 99 5 0.0 0.0 0.00 0.00 0.00 38 1009.5
20260905232544 99 5 0.0 0.0 0.00 0.00 0.00 37 1009.4
20260905232044 99 5 0.0 0.0 0.00 0.00 0.00 37 1009.4
20260905231546 99 5 0.0 2.0 0.00 0.00 0.00 36 1009.4
20260905231046 99 5 0.0 2.0 0.00 0.00 0.00 36 1009.4
20260905230544 99 5 0.0 1.0 0.00 0.00 0.00 37 1009.3
20260905230044 99 5 0.0 1.0 0.00 0.00 0.00 36 1009.4
20260905225543 99 5 0.0 2.0 0.00 0.00 0.00 37 1009.4
20260905225043 99 5 0.0 2.0 0.00 0.00 0.00 36 1009.4
20260905224543 99 5 0.0 2.0 0.00 0.00 0.00 36 1009.4
20260905224042 99 9 0.0 1.0 0.00 0.00 0.00 36 1009.3
20260905223542 99 9 0.0 1.0 0.00 0.00 0.00 37 1009.3
20260905223042 99 9 0.0 2.0 0.00 0.00 0.00 37 1009.4
20260905222542 99 9 0.0 2.0 0.00 0.00 0.00 37 1009.4
20260905222041 99 9 0.0 2.0 0.00 0.00 0.00 37 1009.4
20260905221541 99 9 0.0 2.0 0.00 0.00 0.00 36 1009.4
20260905221040 99 9 0.0 3.0 0.00 0.00 0.00 36 1009.6
20260905220540 99 9 1.0 3.0 0.00 0.00 0.00 37 1009.7
20260905220039 100 9 0.0 2.0 0.00 0.00 0.00 36 1009.7
20260905215539 100 9 0.0 2.0 0.00 0.00 0.00 36 1009.7
20260905215038 100 9 0.0 0.0 0.00 0.00 0.00 37 1009.7
20260905214539 100 9 0.0 1.0 0.00 0.00 0.00 36 1009.8
20260905214038 101 9 0.0 1.0 0.00 0.00 0.00 36 1009.8
20260905213538 101 9 0.0 1.0 0.00 0.00 0.00 35 1009.8
20260905213038 101 9 0.0 2.0 0.00 0.00 0.00 35 1009.8
20260905212539 101 9 0.0 3.0 0.00 0.00 0.00 35 1009.9
20260905212038 101 9 1.0 3.0 0.00 0.00 0.00 35 1009.9
20260905211540 102 5 1.0 3.0 0.00 0.00 0.00 35 1010.0
20260905211036 102 14 1.0 3.0 0.00 0.00 0.00 35 1010.0
20260905210536 102 97 0.0 3.0 0.00 0.00 0.00 35 1010.1
20260905210035 102 97 0.0 3.0 0.00 0.00 0.00 35 1010.2
20260905205533 102 97 0.0 3.0 0.00 0.00 0.00 35 1010.3
20260905205033 102 157 0.0 3.0 0.00 0.00 0.00 35 1010.4
20260905204530 102 157 0.0 3.0 0.00 0.00 0.00 35 1010.4
20260905204028 102 50 0.0 4.0 0.00 0.00 0.00 36 1010.5
20260905203528 102 49 1.0 4.0 0.00 0.00 0.00 36 1010.6
20260905203026 102 185 0.0 4.0 0.00 0.00 0.00 36 1010.6
20260905202524 101 35 0.0 4.0 0.00 0.00 0.00 36 1010.7
20260905202023 101 342 1.0 3.0 0.00 0.00 0.00 37 1010.8
20260905201522 101 315 0.0 3.0 0.00 0.00 0.00 37 1010.9
20260905201020 101 346 0.0 2.0 0.00 0.00 0.00 37 1011.0
20260905200522 101 346 0.0 2.0 0.00 0.00 0.00 37 1011.1
20260905200024 101 321 0.0 2.0 0.00 0.00 0.00 37 1011.2
20260905195515 101 321 0.0 4.0 0.00 0.00 0.00 36 1011.1
20260905195014 101 54 0.0 3.0 0.00 0.00 0.00 36 1011.3
20260905194513 100 57 0.0 4.0 0.00 0.00 0.00 37 1011.3
20260905194012 100 55 0.0 4.0 0.00 0.00 0.00 38 1011.3
20260905193512 100 210 1.0 3.0 0.00 0.00 0.00 38 1011.4
20260905193007 100 221 0.0 3.0 0.00 0.00 0.00 38 1011.5
20260905192506 100 257 0.0 4.0 0.00 0.00 0.00 38 1011.5
20260905192005 99 196 1.0 4.0 0.00 0.00 0.00 39 1011.8
20260905191505 99 24 1.0 2.0 0.00 0.00 0.00 39 1011.8
20260905191004 99 24 0.0 2.0 0.00 0.00 0.00 39 1011.9
20260905190504 99 24 0.0 1.0 0.00 0.00 0.00 40 1011.9
20260905190004 99 24 0.0 3.0 0.00 0.00 0.00 40 1012.0
20260905185503 99 24 0.0 3.0 0.00 0.00 0.00 39 1012.1
20260905185003 99 33 0.0 3.0 0.00 0.00 0.00 40 1012.2
20260905184507 99 33 1.0 3.0 0.00 0.00 0.00 40 1012.3
20260905184002 99 37 2.0 3.0 0.00 0.00 0.00 40 1012.3
20260905183503 99 96 1.0 3.0 0.00 0.00 0.00 40 1012.4